Find Local Weather

World > North America > United States > New Jersey

Villas, New Jersey Regional Weather

Lat: 39.03N, Lon: 74.94W
Wx Zone: NJZ023
Warning FLW WEATHER ALERT - (More Info. Click Here) Warning
Feedback

Villas, NJ Regional Weather

Expires:201905231900;;339827
ASUS41 KPHI 231812
RWRPHI

REGIONAL WEATHER ROUNDUP
NATIONAL WEATHER SERVICE MOUNT HOLLY NJ
200 PM EDT THU MAY 23 2019

NOTE:  "FAIR" INDICATES FEW OR NO CLOUDS BELOW 12,000 FEET WITH NO
SIGNIFICANT WEATHER AND/OR OBSTRUCTIONS TO VISIBILITY.

 * = STATION DOES NOT REPORT PRECIPITATION (E.G. RAIN, SNOW, ETC.) 
        OR FOG.


NJZ015>026-231900-
SOUTHERN NEW JERSEY
  
CITY           SKY/WX    TMP DP  RH WIND       PRES   REMARKS
POMONA         PTSUNNY   69  59  70 S13G21    30.09F                  
6HR MIN TEMP:  64; 6HR MAX TEMP:  70; 6HR PCP:  0.10;                

WILDWOOD*      FAIR      74  61  63 S13G25    30.09F                  
MILLVILLE      FAIR      73  60  63 S9        30.07F                  
WRIGHTSTOWN    PTSUNNY   66  59  78 SW12      30.05F                  
MOUNT HOLLY    PTSUNNY   68  60  75 VRB5      30.07F                  
TRENTON        PTSUNNY   71  57  61 S13       30.06F                  
6HR MIN TEMP:  58; 6HR MAX TEMP:  72; 6HR PCP: TRACE;                


$$

SKY/WX - Weather  TMP - Temperature  DP - Dew Point  RH - Relative Humidity
WIND - Wind Direction/Speed PRES - Barometric Pressure VSB - Visibility
WCI - Wind Chill Index E13G22 Wind - East Wind 13 mph/Gusts of 22 mph